Starlink 35545

operational
NORAD ID: 66108 Int'l Des: 2025-236 Owner: SPXS Country: US Constellation: starlink
NOTLE

About Starlink 35545

Description loading...

Live Position

Loading 3D Globe...

Upcoming Passes

Altitude History

Altitude vs Time

uPlot chart will show altitude changes over time

Two-Line Element Set

1 66108C 25236Z 25293.06229167 .00555180 00000+0 84387-3 0 2936
2 66108 53.1607 48.3596 0008657 259.7611 244.5225 16.03129324 13
Epoch: Oct 20, 2025 • Age: 14 hours

Current Status

Altitude 265.8 km
Velocity 7.75 km/s
Sub-Earth Point -15.52°S, 3.02°E
Launch Date Oct 19, 2025
Age 1 days
Type internet

Technical Details

Classification Payload
Mass 575.00 kg
Dry Mass 530.00 kg
Total Mass 575.00 kg
Length 0.30 m
Diameter 4.10 m
Span 29.00 m
Shape Box + pan
Manufacturer SPXS
Bus Type Starlink V2MO
Phase Status In Orbit
Owner/State SPXS/US

Large Constellations

Loading constellations...